Location: Izdebno
(52.6670°N, 16.2170°E)
Time: 19:58:44
(UTC+01:00)

Transit 2A Rocket - Visible Passes

Search period start: 22 February 2024 00:00
Search period end: 03 March 2024 00:00
Orbit: 591 x 904 km, 66.7° (Epoch: 21 February)

Date Brightness Start Highest point End Pass type
(mag) Time Alt. Az. Time Alt. Az. Time Alt. Az.
22 Feb 7.3 02:52:05 16° NE 02:52:05 16° NE 02:53:04 10° NE visible
22 Feb 6.2 04:31:54 22° NNW 04:31:54 22° NNW 04:35:21 10° NNE visible
22 Feb 6.8 06:13:23 10° NNW 06:15:57 15° N 06:18:38 10° NE visible
23 Feb 6.4 03:49:10 23° N 03:49:10 23° N 03:51:38 10° NNE visible
23 Feb 6.8 05:29:00 10° NW 05:31:39 15° N 05:34:22 10° NNE visible
24 Feb 7.0 03:06:26 19° NNE 03:06:26 19° NNE 03:07:55 10° NNE visible
24 Feb 6.6 04:46:14 15° NNW 04:47:21 17° NNW 04:50:21 10° NNE visible
25 Feb 7.6 02:23:40 13° NE 02:23:40 13° NE 02:24:11 10° NE visible
25 Feb 6.5 04:03:28 19° NNW 04:03:28 19° NNW 04:06:30 10° NNE visible
25 Feb 6.9 05:44:39 10° NNW 05:47:21 15° N 05:50:08 10° NE visible
26 Feb 6.8 03:20:42 19° N 03:20:42 19° N 03:22:44 10° NNE visible
26 Feb 6.9 05:00:30 10° NW 05:03:01 15° N 05:05:45 10° NNE visible
27 Feb 7.3 02:37:55 16° NNE 02:37:55 16° NNE 02:39:01 10° NNE visible
27 Feb 6.8 04:17:43 15° NNW 04:18:42 16° N 04:21:36 10° NNE visible
27 Feb 6.9 05:59:48 10° NNW 06:02:59 18° NNE 06:06:20 10° ENE visible
28 Feb 7.8 01:55:07 11° NNE 01:55:07 11° NNE 01:55:17 10° NNE visible
28 Feb 6.8 03:34:55 18° N 03:34:55 18° N 03:37:39 10° NNE visible
28 Feb 7.0 05:15:52 10° NNW 05:18:42 16° N 05:21:40 10° NE visible
29 Feb 7.1 02:52:07 17° N 02:52:07 17° N 02:53:51 10° NNE visible
29 Feb 7.0 04:31:55 11° NNW 04:34:24 15° N 04:37:10 10° NE visible
01 Mar 7.5 02:09:17 14° NNE 02:09:17 14° NNE 02:10:06 10° NNE visible
01 Mar 6.9 03:49:05 15° NNW 03:50:04 15° N 03:52:53 10° NNE visible
01 Mar 7.0 05:30:53 10° NNW 05:34:19 19° NNE 05:37:57 10° ENE visible
02 Mar 7.0 03:06:16 17° N 03:06:16 17° N 03:08:51 10° NNE visible
02 Mar 7.1 04:47:00 10° NNW 04:50:04 17° NNE 04:53:15 10° NE visible
